Home > Time Zones > World Clock > Weather > Aktau > Past weeks

Flag for Kazakhstan Weather past 2 weeks in Aktau, Kazakhstan

Now
75 °F

Clear.


Feels Like: 75 °F
Forecast: 77 / 100 °F
Wind: 6 mph from Northwest

Location: Aktau

Current Time: Aug 21, 2014 at 4:06:52 AM

Latest Report: Aug 21, 2014 at 3:30 AM


Visibility: 10 mi

Pressure: 29.89 "Hg

Humidity: 83%

Dew point: 70 °F

Location of AktauLocation

Historic Weather in Aktau — Graph

°F

Aktau temperature yesterday

Maximum temperature yesterday: 102 °F (at 1:00 PM)
Minimum temperature yesterday: 70 °F (at 5:30 AM)
Average temperature yesterday: 84 °F

Past Weeks' High & Low Weather Summary

 TemperatureHumidityPressure
High104 °F (Aug 11, 4:00 PM)78% (Aug 15, 6:30 AM)30.07 "Hg (Aug 15, 6:30 AM)
Low64 °F (Aug 15, 7:00 AM)5% (Aug 6, 12:30 PM)29.59 "Hg (Aug 6, 2:30 PM)
Average85 °F29%29.80 "Hg
* Reported Aug 6 2:00 AM — Aug 21 2:30 AM, Aktau, Weather by CustomWeather, © 2014

Note: Actual official high and low records may vary slightly from our data, if they occured in-between our weather recording intervals... More about our weather records

Advertising

Aktau weather history for previous 24 hours

 ConditionsComfort  
Time TempWeatherWind HumidityBarometerVisibility
2:30 AM
Aug 21
77 °FPassing clouds.6 mph74%29.89 "HgN/A
2:00 AM77 °FClear.6 mph69%29.89 "Hg10 mi
1:30 AM73 °FClear.6 mph53%29.89 "Hg10 mi
1:00 AM75 °FClear.3 mph50%29.89 "Hg10 mi
12:30 AM77 °FClear.6 mph47%29.89 "Hg10 mi
12:00 AM75 °FClear.8 mph50%29.89 "Hg10 mi
11:30 PM
Aug 20
77 °FClear.6 mph54%29.89 "Hg10 mi
11:00 PM79 °FClear.6 mph54%29.92 "Hg10 mi
10:30 PM79 °FSunny.6 mph54%29.92 "Hg10 mi
10:00 PM79 °FSunny.6 mph54%29.92 "Hg10 mi
9:30 PM81 °FSunny.6 mph54%29.92 "Hg10 mi
9:00 PM82 °FPassing clouds.6 mph48%29.92 "HgN/A
8:30 PM84 °FSunny.3 mph40%29.89 "Hg10 mi
8:00 PM86 °FSunny.3 mph35%29.89 "Hg10 mi
7:30 PM88 °FSunny.6 mph33%29.89 "Hg10 mi
7:00 PM88 °FSunny.8 mph31%29.89 "Hg10 mi
6:30 PM90 °FSunny.10 mph27%29.89 "Hg10 mi
6:00 PM91 °FSunny.13 mph24%29.89 "Hg10 mi
5:30 PM93 °FSunny.13 mph19%29.89 "Hg10 mi
5:00 PM95 °FSunny.10 mph18%29.89 "Hg10 mi
4:30 PM95 °FSunny.13 mph19%29.89 "Hg10 mi
4:00 PM95 °FSunny.13 mph18%29.92 "Hg10 mi
3:30 PM97 °FSunny.13 mph13%29.92 "Hg10 mi
3:00 PM97 °FSunny.15 mph13%29.92 "Hg10 mi
2:30 PM99 °FSunny.15 mph12%29.92 "Hg10 mi
2:00 PM99 °FSunny.17 mph13%29.92 "Hg10 mi
1:30 PM102 °FSunny.15 mph9%29.92 "Hg10 mi
1:00 PM102 °FSunny.17 mph8%29.92 "Hg10 mi
12:30 PM100 °FSunny.15 mph8%29.92 "Hg10 mi
12:00 PM99 °FSunny.15 mph9%29.92 "Hg10 mi
11:30 AM97 °FSunny.13 mph10%29.92 "Hg10 mi
11:00 AM93 °FSunny.13 mph10%29.92 "Hg10 mi
10:30 AM91 °FSunny.13 mph10%29.92 "Hg10 mi
10:00 AM90 °FSunny.15 mph10%29.92 "Hg10 mi
9:30 AM86 °FSunny.17 mph10%29.92 "Hg10 mi
9:00 AM84 °FSunny.15 mph10%29.92 "Hg10 mi
8:30 AM81 °FClear.13 mph12%29.92 "Hg10 mi
7:30 AM70 °FClear.10 mph27%29.92 "Hg10 mi
7:00 AM70 °FClear.8 mph29%29.92 "Hg10 mi
6:30 AM70 °FClear.10 mph31%29.92 "Hg10 mi
6:00 AM70 °FClear.6 mph33%29.92 "Hg10 mi
5:30 AM70 °FClear.6 mph33%29.92 "Hg10 mi
5:00 AM72 °FPassing clouds.3 mph33%29.92 "HgN/A
4:30 AM72 °FClear.10 mph33%29.89 "Hg10 mi
4:00 AM72 °FClear.8 mph33%29.89 "Hg10 mi
Weather by CustomWeather, © 2014

See weather overviewHow to use our weather pages